sat.trackr.live / text

‹ back to catalog

STARLINK-32801

NORAD 63035 · 2025-034G

PAYLOAD ACTIVE UNKNOWN

§ Identity

Operator
Country
US
Launch date
2025-02-18
Launch site
AFETR
Launch vehicle
Mass (kg)
RCS (m²)

Purposes: comms

External: N2YO · Heavens-Above · Gunter

§ Orbital elements

Epoch: 2026-05-24T17:47:53.112480Z

Period
93.85 min
Inclination
53.1591°
Eccentricity
0.0000936
Mean motion
15.34358983 rev/d
Perigee alt
462.2 km
Apogee alt
463.5 km
Semi-major
6,841.0 km
B*
8.3162e-4
RAAN
264.6654°
Arg perigee
112.9881°
Mean anomaly
247.1220°
Rev number
7,072

§ Raw data

STARLINK-328011 63035U 25034G   26144.74158695  .00027789  00000+0  83162-3 0  99982 63035  53.1591 264.6654 0000936 112.9881 247.1220 15.34358983 70727

JSON: /api/v1/satellites/63035 · /tle

For live sub-satellite position, see the globe view (requires WebGL).

§ Visibility from observer

Set your observer location to see the next 7 days of passes ≥ 10°. The values pass through the URL so the page stays shareable.

No JS? Fill the form by hand. The geolocation button needs JavaScript.